Location: Beetenbrück
(52.8113°N, 9.5946°E)
Time: 21:07:19
(UTC+00:00)

Cosmos 1733 Rocket - Pass Details

Date: 14 April 2026
Orbit: 597 x 619 km, 82.5° (Epoch: 12 May)

Event Time Altitude Azimuth Distance (km) Brightness Sun altitude
Exits shadow 20:57:31 10° 216° (SW) 1,984 5.5 -20.4°
Reaches altitude 10° 20:57:34 10° 216° (SW) 1,965 5.5 -20.4°
Maximum altitude 21:01:43 42° 288° (WNW) 886 4.2 -20.8°
Drops below altitude 10° 21:05:54 10° 360° (N) 1,992 6.4 -21.1°
Sets 21:08:15 0° 7° (N) 2,905 7.2 -21.3°
